Probability
35 23 10 10 0 0 0 0 0 0 0 0 0 0 0 0 0 0 0 3 3 6 19 35 61 68 68 52 52 61 68 61 61 65 61 61 65 65 61 58 65 61 55 55 58 55 58 52 48
19 16 10 6 0 0 0 0 0 0 0 0 0 0 0 0 0 0 3 6 10 13 16 23 65 71 68 55 55 71 71 68 74 71 71 65 65 61 55 68 58 58 55 55 48 48 55 52 48
16 16 13 0 0 0 0 0 0 0 0 0 0 0 3 3 3 3 3 10 13 13 16 26 68 68 65 65 68 74 77 65 65 65 68 71 71 65 65 58 55 52 55 48 42 42 52 48 55
23 10 0 0 0 0 0 0 0 0 0 0 0 0 3 3 3 3 6 13 16 23 29 35 74 68 68 65 68 68 68 58 61 52 58 61 71 71 55 52 52 52 52 45 42 39 45 45 42
16 6 3 0 0 0 0 0 0 0 0 0 0 0 0 3 3 6 6 16 16 26 32 32 68 65 65 65 65 74 71 55 58 61 61 55 52 55 58 45 52 48 45 48 35 32 39 48 45
19 10 0 0 0 0 0 0 0 0 0 0 0 0 0 3 6 6 10 13 19 32 35 35 55 65 61 61 61 68 68 61 61 55 68 55 55 61 58 55 52 52 42 42 32 32 35 39 35
6 3 3 0 0 0 0 0 0 0 0 0 0 0 0 3 6 6 3 13 23 29 32 29 45 45 55 65 58 61 61 68 65 65 65 61 55 48 45 55 45 42 42 45 35 32 35 32 32
6 3 3 0 0 0 0 0 0 0 0 0 0 0 0 0 0 0 3 13 19 26 29 26 32 32 29 32 45 48 58 58 58 58 55 52 52 52 52 48 55 45 45 45 35 26 32 39 42
10 3 0 0 0 0 0 0 0 0 0 0 0 0 0 0 0 0 0 6 19 19 13 19 13 10 19 26 29 32 48 52 42 35 45 29 10 13 23 35 52 32 35 42 39 35 39 35 42
3 0 0 0 0 0 0 0 0 0 0 0 0 3 3 0 0 0 0 0 0 13 10 3 3 13 16 19 13 10 16 23 19 10 10 10 6 6 16 35 35 45 42 35 39 39 32 29 19
3 3 0 0 0 0 0 0 0 0 0 0 0 3 6 3 3 0 0 0 0 0 3 0 0 0 6 6 6 3 3 3 6 6 6 3 3 3 3 10 10 10 19 16 19 19 19 10 6
3 0 0 0 0 0 0 0 0 0 0 0 0 6 6 3 3 0 0 0 0 3 3 0 0 0 0 3 6 3 3 3 3 3 3 3 3 3 3 3 3 0 3 6 6 6 3 3 3
3 0 0 0 0 0 0 0 0 0 0 0 0 6 6 3 3 3 0 0 0 0 3 3 0 0 0 3 3 3 3 0 0 0 3 3 3 3 0 3 0 0 0 0 3 3 0 0 0
0 0 0 0 0 0 0 0 0 0 0 0 0 6 6 6 3 0 0 0 0 0 0 3 3 3 3 3 3 3 0 0 0 3 3 3 3 3 0 0 0 0 0 0 0 0 0 0 0
0 0 0 0 0 0 0 0 0 0 0 0 0 0 6 6 3 0 0 0 0 0 0 3 3 3 6 6 6 6 0 0 0 3 3 0 3 3 3 0 0 0 0 0 0 0 0 0 0
0 0 0 0 0 0 0 0 0 0 0 0 0 0 0 0 0 0 0 0 0 0 0 0 6 6 6 6 6 3 3 3 3 3 0 0 0 0 0 0 0 0 0 3 0 0 3 3 3
0 0 0 0 0 0 0 0 0 0 0 0 0 0 0 0 3 0 0 0 0 0 3 3 10 6 6 6 3 3 3 3 0 0 0 0 0 3 3 3 3 3 3 10 10 6 3 3 6
0 0 0 0 0 0 0 0 0 0 0 0 0 0 0 3 3 3 3 0 0 0 3 3 3 6 6 6 3 0 0 0 0 0 0 3 6 10 3 3 3 3 6 6 3 3 3 6 6
0 0 0 0 0 0 0 0 0 0 0 0 0 0 0 0 3 3 3 3 0 3 3 3 3 3 6 3 6 3 6 0 0 0 0 6 13 16 16 16 6 6 13 16 13 6 6 6 3
0 0 0 0 0 0 0 0 0 0 0 0 0 0 0 0 0 3 3 3 3 3 3 3 3 3 3 3 3 3 6 3 3 0 6 10 13 13 16 13 10 13 16 13 13 6 3 3 6
0 0 0 0 0 0 0 0 0 0 0 0 0 0 0 0 0 0 6 6 6 6 6 3 3 3 3 6 3 13 10 6 6 6 10 10 13 13 13 23 16 10 13 13 6 3 6 6 6
0 0 0 0 0 0 0 0 0 0 0 0 0 0 0 0 0 0 6 10 10 10 3 6 3 6 3 3 10 10 10 10 10 10 10 16 16 16 19 23 19 10 10 10 6 10 6 3 3
0 0 0 0 0 0 0 0 0 0 0 0 0 0 0 3 3 0 3 10 13 10 6 6 6 10 6 3 6 6 6 6 10 10 13 16 16 16 23 23 16 13 13 13 13 10 6 6 6
0 0 0 0 0 0 0 0 0 0 0 0 0 0 0 3 3 3 3 10 16 19 10 13 10 13 6 3 6 10 13 13 16 19 16 19 23 16 16 23 23 23 16 13 13 10 6 6 6
0 0 0 0 0 0 0 0 0 0 0 0 0 0 0 3 3 3 6 16 23 23 23 23 13 6 6 6 10 10 13 13 26 26 19 26 29 23 23 23 23 19 16 16 13 10 13 10 10
0 0 0 0 0 0 0 0 0 0 0 0 0 0 3 3 6 6 10 16 23 23 23 23 19 13 10 10 13 19 16 16 23 19 19 26 29 26 23 23 23 19 16 16 16 16 16 16 10
0 0 0 0 0 0 0 0 0 6 3 0 3 0 0 6 10 13 13 16 19 19 19 23 16 16 16 16 19 26 19 19 23 26 26 26 29 32 32 29 29 23 23 26 16 16 16 13 16
0 0 0 0 0 0 0 0 0 6 6 3 6 10 13 16 6 16 19 23 26 26 23 19 16 19 19 29 23 23 19 19 23 29 26 29 29 26 32 35 29 26 23 23 16 19 16 16 16
0 0 0 0 0 0 0 0 3 6 3 3 6 10 26 23 23 16 19 23 23 26 23 23 19 23 29 29 26 29 26 23 29 26 29 26 26 29 32 35 35 29 23 23 19 13 10 13 13
0 0 0 0 0 0 0 0 3 6 3 3 10 13 19 26 23 16 19 26 19 23 26 26 26 23 19 26 29 26 23 29 29 32 35 35 35 26 29 29 32 29 23 23 19 19 16 19 19
Height
5868 5867 5866 5866 5865 5863 5862 5862 5861 5860 5860 5859 5859 5858 5858 5858 5858 5860 5859 5857 5858 5858 5858 5857 5857 5856 5854 5852 5851 5853 5855 5856 5857 5858 5859 5860 5862 5863 5865 5866 5867 5868 5870 5871 5873 5875 5877 5878 5879
5870 5869 5869 5868 5866 5864 5864 5863 5862 5862 5862 5861 5860 5859 5858 5858 5858 5858 5857 5858 5858 5859 5859 5858 5858 5858 5857 5856 5856 5857 5858 5859 5860 5861 5862 5863 5864 5865 5867 5868 5869 5871 5872 5874 5875 5877 5878 5880 5881
5872 5871 5871 5869 5867 5867 5866 5864 5864 5863 5863 5862 5861 5860 5859 5859 5859 5858 5858 5859 5859 5859 5859 5859 5859 5859 5859 5860 5860 5860 5861 5862 5862 5864 5864 5865 5866 5868 5869 5870 5872 5873 5875 5876 5877 5879 5880 5881 5882
5875 5874 5873 5871 5869 5869 5867 5866 5865 5864 5864 5863 5862 5862 5861 5861 5860 5860 5860 5860 5860 5860 5860 5860 5861 5861 5861 5862 5862 5863 5863 5864 5865 5866 5867 5868 5868 5869 5871 5873 5874 5876 5877 5879 5880 5881 5882 5883 5884
5877 5876 5875 5873 5871 5870 5869 5868 5867 5866 5865 5865 5864 5863 5862 5862 5861 5861 5861 5861 5861 5861 5862 5861 5862 5862 5863 5864 5865 5865 5866 5866 5867 5868 5869 5870 5871 5872 5874 5875 5877 5878 5879 5881 5882 5883 5884 5885 5885
5880 5878 5877 5875 5873 5872 5871 5870 5869 5868 5868 5867 5866 5865 5864 5864 5863 5863 5863 5863 5863 5863 5863 5863 5863 5864 5865 5866 5866 5867 5868 5869 5869 5870 5871 5872 5873 5875 5876 5877 5879 5880 5881 5882 5883 5884 5885 5886 5886
5882 5880 5878 5877 5875 5875 5874 5872 5871 5870 5870 5869 5868 5867 5866 5866 5865 5865 5865 5865 5864 5865 5865 5865 5865 5866 5867 5868 5868 5869 5870 5871 5872 5873 5874 5875 5876 5877 5878 5879 5880 5882 5883 5884 5885 5886 5886 5887 5887
5883 5883 5880 5879 5877 5877 5876 5874 5873 5873 5872 5871 5870 5870 5868 5868 5867 5867 5867 5866 5866 5867 5867 5867 5868 5868 5869 5869 5870 5871 5872 5873 5874 5875 5876 5877 5878 5879 5880 5881 5882 5883 5884 5885 5886 5887 5887 5888 5888
5886 5886 5882 5881 5880 5879 5878 5877 5876 5876 5874 5873 5872 5872 5871 5870 5870 5869 5869 5868 5868 5869 5869 5869 5870 5870 5870 5871 5872 5873 5874 5875 5876 5877 5878 5879 5880 5881 5882 5883 5884 5884 5885 5886 5887 5888 5888 5889 5889
5888 5887 5885 5884 5883 5882 5880 5879 5879 5878 5877 5876 5875 5874 5873 5873 5872 5871 5871 5871 5870 5870 5871 5871 5872 5872 5872 5873 5874 5875 5876 5876 5877 5878 5880 5880 5881 5882 5883 5884 5885 5886 5886 5887 5888 5888 5889 5890 5890
5890 5889 5888 5887 5885 5884 5883 5882 5881 5881 5880 5879 5878 5877 5876 5875 5874 5874 5873 5873 5872 5872 5872 5873 5874 5874 5875 5875 5876 5876 5877 5878 5879 5880 5881 5882 5883 5884 5885 5885 5886 5887 5887 5888 5889 5889 5890 5890 5891
5892 5891 5890 5889 5888 5886 5885 5884 5884 5883 5883 5882 5880 5879 5878 5877 5877 5876 5875 5875 5874 5874 5874 5875 5875 5876 5876 5877 5877 5878 5879 5880 5880 5881 5882 5883 5884 5885 5886 5886 5887 5888 5888 5889 5890 5890 5891 5891 5891
5894 5894 5892 5891 5890 5888 5888 5887 5886 5885 5885 5884 5883 5882 5881 5880 5879 5878 5877 5877 5876 5876 5876 5877 5877 5877 5878 5879 5879 5880 5881 5881 5882 5883 5884 5884 5885 5886 5887 5887 5888 5888 5889 5890 5890 5891 5891 5892 5892
5896 5896 5895 5893 5892 5891 5890 5889 5889 5888 5887 5886 5885 5884 5883 5882 5881 5880 5880 5879 5878 5878 5878 5879 5879 5879 5880 5880 5881 5882 5882 5883 5883 5884 5885 5885 5886 5887 5888 5888 5889 5889 5890 5891 5891 5891 5891 5892 5892
5897 5897 5897 5896 5894 5893 5893 5892 5891 5890 5889 5888 5887 5886 5885 5884 5884 5883 5882 5881 5881 5881 5880 5881 5881 5881 5881 5882 5883 5883 5884 5884 5885 5885 5886 5886 5887 5888 5888 5889 5889 5890 5890 5891 5891 5891 5891 5891 5892
5898 5898 5898 5897 5896 5896 5897 5895 5893 5892 5891 5890 5889 5888 5887 5887 5886 5885 5884 5884 5883 5883 5883 5883 5883 5883 5883 5884 5884 5884 5885 5885 5886 5886 5887 5887 5888 5888 5889 5889 5890 5890 5891 5891 5891 5891 5891 5891 5891
5898 5899 5898 5899 5898 5897 5897 5897 5896 5895 5894 5893 5891 5890 5889 5889 5888 5887 5887 5886 5886 5885 5885 5885 5885 5885 5885 5886 5886 5886 5886 5887 5887 5888 5888 5888 5889 5889 5890 5890 5890 5891 5891 5891 5892 5892 5891 5891 5891
5899 5899 5899 5899 5899 5899 5898 5898 5897 5896 5896 5895 5894 5892 5892 5891 5890 5890 5889 5888 5888 5887 5887 5887 5887 5887 5887 5887 5887 5887 5887 5887 5888 5888 5888 5889 5889 5890 5890 5890 5891 5891 5892 5892 5892 5892 5891 5891 5891
5898 5899 5899 5900 5899 5899 5899 5899 5898 5898 5897 5897 5896 5895 5893 5893 5892 5892 5891 5890 5890 5889 5889 5889 5889 5889 5889 5889 5888 5888 5888 5888 5889 5889 5889 5890 5890 5890 5890 5891 5891 5891 5892 5892 5891 5891 5890 5890 5890
5897 5898 5899 5899 5899 5900 5899 5900 5899 5899 5898 5898 5897 5896 5895 5894 5894 5893 5893 5892 5891 5891 5891 5891 5890 5890 5890 5890 5890 5890 5889 5889 5889 5890 5890 5890 5890 5891 5891 5891 5891 5892 5891 5891 5891 5890 5890 5889 5889
5895 5897 5898 5898 5899 5899 5900 5900 5899 5899 5899 5898 5898 5897 5896 5895 5895 5894 5894 5894 5893 5892 5892 5892 5892 5891 5891 5891 5891 5891 5890 5890 5890 5890 5891 5891 5891 5891 5891 5891 5892 5891 5891 5891 5890 5890 5889 5888 5887
5893 5895 5896 5897 5897 5898 5899 5899 5899 5898 5899 5898 5898 5898 5897 5896 5896 5895 5895 5895 5894 5894 5893 5893 5893 5893 5893 5893 5892 5892 5891 5891 5891 5891 5891 5891 5891 5891 5891 5891 5891 5891 5891 5890 5889 5888 5888 5887 5886
5891 5893 5893 5894 5895 5896 5897 5898 5899 5898 5898 5898 5898 5898 5898 5897 5896 5896 5895 5895 5895 5895 5894 5894 5894 5894 5894 5894 5894 5893 5892 5892 5892 5891 5891 5891 5891 5891 5891 5891 5891 5890 5890 5889 5888 5887 5886 5886 5885
5889 5890 5891 5892 5893 5894 5896 5896 5897 5897 5898 5898 5898 5898 5898 5897 5897 5896 5896 5896 5896 5896 5896 5895 5895 5895 5895 5895 5894 5893 5893 5892 5892 5892 5892 5892 5891 5891 5891 5890 5890 5889 5889 5888 5887 5886 5885 5884 5883
5886 5888 5889 5889 5890 5892 5894 5893 5895 5897 5896 5897 5897 5897 5897 5897 5896 5896 5896 5896 5896 5896 5896 5896 5896 5896 5895 5895 5895 5894 5893 5893 5892 5892 5892 5892 5891 5891 5890 5889 5889 5888 5887 5886 5885 5884 5883 5882 5881
5882 5884 5886 5887 5888 5889 5890 5890 5894 5894 5894 5895 5895 5896 5896 5896 5896 5896 5896 5896 5896 5896 5895 5895 5895 5896 5896 5895 5895 5894 5894 5893 5893 5892 5892 5891 5891 5890 5889 5888 5888 5887 5886 5884 5884 5882 5881 5880 5879
5878 5880 5883 5884 5885 5886 5886 5888 5890 5891 5892 5893 5894 5894 5895 5895 5895 5895 5895 5895 5895 5895 5895 5895 5895 5895 5895 5895 5894 5894 5893 5893 5892 5892 5891 5891 5890 5889 5888 5887 5887 5885 5884 5883 5881 5880 5879 5877 5876
5874 5876 5878 5879 5880 5881 5882 5884 5887 5888 5889 5891 5891 5892 5893 5893 5893 5893 5894 5894 5894 5894 5894 5894 5894 5894 5894 5894 5894 5893 5892 5892 5891 5890 5890 5889 5888 5888 5887 5886 5885 5883 5882 5881 5879 5878 5876 5874 5873
5868 5871 5872 5874 5876 5877 5878 5882 5884 5885 5886 5887 5888 5889 5889 5890 5891 5891 5892 5892 5892 5892 5892 5893 5893 5893 5893 5893 5892 5892 5891 5890 5890 5889 5888 5887 5886 5885 5884 5883 5882 5881 5880 5878 5877 5875 5873 5871 5870
5862 5864 5867 5869 5871 5872 5874 5879 5880 5881 5883 5884 5885 5886 5886 5887 5887 5888 5888 5889 5889 5890 5890 5890 5891 5891 5891 5891 5890 5889 5889 5888 5887 5886 5885 5885 5884 5883 5882 5880 5880 5878 5877 5875 5874 5872 5870 5868 5866
Wind_Speed
17 16 15 14 14 13 13 12 13 12 11 10 9 9 8 7 6 5 5 5 4 4 5 6 7 7 8 9 10 11 10 10 10 11 11 11 11 10 11 12 13 14 14 13 13 12 12 12 12
17 17 16 15 15 15 14 14 14 13 12 11 10 10 9 8 7 6 5 5 4 5 6 7 7 8 9 11 11 11 11 11 11 11 12 12 11 10 11 12 12 13 13 13 13 12 12 11 10
18 17 17 16 16 15 15 15 15 14 13 12 11 11 10 9 8 7 7 6 5 6 7 8 9 9 9 10 11 11 11 11 11 12 11 12 11 11 11 12 13 13 13 12 12 12 11 10 9
17 17 17 17 16 16 15 15 15 14 13 13 12 12 11 10 9 8 8 7 7 7 8 9 9 10 10 10 11 11 11 11 12 12 11 11 11 12 12 13 13 13 12 12 11 11 10 9 8
17 17 17 18 17 17 16 16 16 15 14 13 13 12 11 10 9 8 8 8 8 8 8 9 10 10 10 11 11 11 12 12 12 12 11 11 12 12 12 12 12 12 11 11 10 10 9 8 7
16 17 17 18 18 17 16 16 16 15 14 13 13 13 11 10 10 10 9 10 9 10 10 11 11 11 12 12 12 12 12 12 12 12 12 11 12 12 11 11 11 11 10 10 10 9 8 7 7
16 17 18 18 18 17 16 16 16 15 14 13 13 13 12 11 11 11 11 11 11 11 10 11 12 13 12 12 12 12 13 12 12 12 12 12 12 12 11 10 10 10 9 9 8 8 7 6 6
16 17 17 17 17 16 15 16 16 15 14 13 13 13 13 13 12 12 12 12 12 12 12 12 12 13 13 13 12 13 12 12 11 12 12 12 11 11 10 10 9 9 8 8 7 6 6 5 5
15 16 17 18 17 16 15 15 15 14 14 14 13 13 13 13 12 12 12 12 12 12 12 12 12 12 13 13 12 12 12 11 11 11 11 10 10 10 9 9 8 8 7 7 7 6 5 5 4
15 16 16 17 17 17 16 15 15 14 14 14 13 13 13 12 12 11 12 11 11 11 11 12 12 12 12 13 12 12 12 11 10 9 9 9 9 9 8 8 8 7 7 6 6 6 5 4 4
14 15 16 16 16 16 16 16 15 15 14 13 13 13 13 12 11 11 11 11 11 10 10 11 11 11 11 12 12 11 11 11 10 9 9 9 9 8 7 7 7 6 6 6 5 4 4 4 3
12 13 15 16 16 16 16 15 15 15 14 13 12 12 12 12 11 11 11 11 11 10 10 10 11 10 11 11 11 11 10 10 10 9 8 9 9 8 7 6 6 6 5 5 4 3 3 3 2
9 11 13 15 16 16 16 15 15 14 13 13 12 12 12 12 11 11 11 11 10 11 11 11 11 11 11 11 11 10 10 10 9 8 8 8 8 7 6 6 6 5 4 4 3 2 1 1 1
7 8 11 13 14 15 15 15 15 14 12 12 12 12 12 12 12 11 11 11 10 10 11 11 11 10 10 10 9 9 9 8 8 8 8 7 7 7 5 5 4 4 3 3 2 1 0 0 0
6 6 8 11 12 13 14 14 14 13 12 12 11 11 11 12 11 11 11 10 10 10 10 10 10 9 9 9 8 8 7 7 7 7 7 7 6 5 5 4 4 3 3 2 1 1 0 1 1
3 5 6 8 9 10 11 13 13 12 12 12 11 12 11 11 11 11 10 10 10 10 10 10 9 9 8 8 7 7 7 6 6 6 6 6 5 4 5 4 3 3 2 1 1 1 1 2 3
2 3 4 6 7 8 9 11 11 11 11 11 11 11 11 11 10 10 11 10 10 10 10 9 9 8 8 8 7 6 6 6 6 6 5 4 4 4 3 4 4 3 2 1 2 2 2 3 3
3 0 2 4 5 6 7 9 9 9 9 9 10 10 10 10 9 9 9 10 10 10 10 10 10 9 8 8 8 7 6 6 6 6 5 4 4 4 4 3 3 2 2 2 3 3 3 3 4
5 3 2 2 3 4 5 6 7 7 7 8 8 8 9 9 9 9 8 8 9 9 9 9 10 10 9 9 9 8 7 6 6 5 4 4 4 3 3 2 2 2 3 3 4 4 4 5 5
8 6 4 3 2 1 1 3 5 5 5 5 6 6 7 7 7 8 8 8 8 8 9 8 9 9 9 9 10 9 8 7 6 5 5 4 4 3 3 2 2 3 3 4 5 5 5 6 6
10 8 6 6 5 3 1 1 2 3 3 4 4 5 5 6 6 6 7 7 7 7 7 8 8 8 8 9 9 8 7 6 5 5 4 4 3 3 2 1 2 3 4 5 5 6 7 7 7
13 11 10 9 8 6 5 3 3 1 1 2 2 3 3 4 4 5 6 6 6 6 7 7 8 8 8 7 7 7 7 6 5 4 3 3 3 3 2 2 2 3 5 5 6 7 8 8 8
15 14 13 13 12 10 8 6 3 2 1 1 1 2 2 2 2 3 4 4 4 4 5 6 6 6 7 7 7 7 7 6 5 4 4 4 3 3 2 3 3 5 6 6 7 8 9 9 9
18 17 16 16 15 14 10 10 7 5 4 3 3 3 2 1 1 2 1 2 2 3 4 4 4 5 5 5 5 6 6 5 4 4 3 3 3 3 3 4 5 6 6 7 8 9 10 10 10
21 20 19 18 17 16 13 14 10 7 7 6 5 4 3 2 1 0 0 0 1 1 2 2 2 2 3 3 4 4 4 4 4 3 3 3 4 4 4 5 6 7 7 8 9 10 11 11 11
23 22 22 20 19 17 17 16 12 10 9 9 7 5 5 3 2 2 2 2 2 2 2 1 1 0 1 2 2 3 3 3 2 3 3 3 4 5 5 6 8 8 8 9 10 11 12 13 13
25 24 23 23 21 21 20 17 14 13 12 11 9 8 7 5 5 5 4 4 4 4 3 2 2 1 1 1 2 3 3 3 3 4 4 4 5 6 7 8 9 10 10 11 12 13 13 14 14
27 26 26 26 25 23 21 19 16 15 14 13 11 10 9 8 7 7 6 6 5 6 6 5 4 3 3 3 3 4 4 5 5 6 6 6 7 7 8 9 10 11 12 13 14 14 15 16 16
29 28 29 28 27 26 24 21 18 16 15 14 13 11 11 11 10 10 10 9 8 7 7 8 6 5 5 5 5 6 7 7 8 8 8 9 9 9 10 11 11 13 13 14 15 16 17 17 17
30 29 29 29 28 27 26 22 19 18 17 15 14 13 13 13 12 11 11 11 10 9 8 8 9 8 8 8 8 8 9 9 10 10 10 11 11 11 12 12 13 14 14 15 16 17 18 19 19
Wind_Direction
64 67 68 66 68 68 66 68 70 68 63 60 61 61 61 64 69 79 82 83 79 79 84 84 81 81 80 88 98 104 105 108 104 103 105 110 117 118 120 125 127 127 129 133 131 129 126 124 123
63 68 68 66 67 70 68 66 64 63 61 60 61 60 57 62 73 77 85 89 88 85 87 91 90 91 92 93 98 104 105 108 106 105 108 110 114 116 120 124 125 127 126 126 127 128 127 127 127
63 66 67 68 69 69 67 64 64 62 59 56 56 56 57 63 71 75 82 88 94 93 90 94 98 98 102 100 100 104 107 107 108 108 110 111 113 115 120 123 122 123 120 121 124 126 128 129 126
63 66 67 68 68 68 66 65 63 60 57 54 55 58 61 65 71 78 84 90 97 99 97 98 101 105 109 106 103 104 106 106 109 108 109 111 111 114 118 120 120 120 119 120 122 121 121 122 121
63 65 68 67 68 68 65 65 63 60 57 54 56 59 62 67 73 81 89 92 96 97 97 100 102 110 109 105 106 105 108 107 109 109 109 113 116 118 118 117 117 118 116 116 118 117 119 123 124
63 65 68 67 68 66 65 65 65 63 58 56 59 60 61 68 74 82 87 91 94 95 94 98 103 105 105 105 105 105 108 109 107 107 107 109 112 115 116 117 117 116 114 113 114 115 117 120 121
64 64 66 68 68 66 65 64 64 63 58 56 59 61 62 68 75 82 86 88 92 95 98 100 98 99 101 103 105 109 108 110 110 108 107 110 111 111 113 117 119 116 114 116 115 112 113 114 116
67 64 65 67 66 64 65 64 61 59 57 58 59 62 64 69 75 82 85 85 88 93 98 98 95 97 100 102 103 105 107 109 110 110 108 109 111 111 112 116 119 115 114 119 121 119 117 114 116
70 64 62 66 66 65 65 64 61 60 59 60 61 61 66 72 77 80 83 84 86 88 93 96 95 97 100 102 104 105 105 107 108 109 109 109 111 113 113 116 122 121 123 126 128 127 122 118 115
71 66 63 65 67 66 65 65 63 62 62 63 64 64 68 74 78 80 82 84 87 88 91 95 95 96 101 104 105 106 104 106 108 108 109 110 111 114 116 117 123 126 130 133 133 130 125 118 111
73 71 68 67 69 68 66 67 66 65 64 63 63 65 68 73 76 77 80 85 88 91 95 97 98 98 102 106 108 106 104 103 104 107 108 110 111 114 115 117 122 128 132 131 130 122 119 120 123
78 73 71 70 69 66 65 68 69 66 63 62 63 67 69 72 73 74 79 84 87 94 100 103 103 103 105 107 108 108 106 105 106 108 114 115 113 113 112 117 125 130 131 126 121 117 115 120 131
86 80 76 70 67 66 66 66 68 65 63 62 63 67 68 69 70 74 77 79 83 90 100 104 105 109 108 107 107 107 107 106 106 110 114 119 120 115 114 125 133 135 130 126 126 123 98 110 123
92 90 79 71 64 64 64 63 64 63 64 64 64 66 67 68 69 71 76 76 78 86 95 102 103 105 106 105 106 104 106 105 108 112 114 118 119 112 113 123 138 132 123 119 125 82 225 170 352
100 91 81 70 67 61 59 60 60 63 64 66 64 65 66 67 70 70 76 78 81 87 97 102 99 104 104 99 98 103 106 105 110 112 111 116 119 118 115 106 116 119 111 109 97 41 338 317 317
105 91 78 68 67 60 57 55 57 59 62 63 64 66 66 65 66 66 73 78 85 89 95 100 98 99 97 94 92 95 102 102 104 108 104 109 109 118 116 109 108 101 98 88 46 350 333 322 318
155 101 79 72 71 65 56 52 50 52 56 61 65 68 66 64 63 66 71 77 85 89 91 91 92 94 92 92 93 95 96 99 100 101 99 99 103 113 117 105 96 90 79 43 6 341 314 318 315
213 191 99 92 85 68 59 51 46 45 49 56 62 70 67 63 66 67 72 76 83 88 88 87 87 89 88 87 88 88 89 93 97 90 93 95 97 109 112 104 86 81 62 27 9 5 355 337 323
213 207 189 130 105 85 57 45 43 42 46 49 56 65 67 66 68 71 74 81 86 89 90 90 91 92 89 82 77 79 87 94 98 94 96 99 99 107 109 95 78 51 21 7 355 348 344 335 328
217 216 220 226 182 133 68 49 44 39 39 45 53 58 66 65 68 75 75 79 90 91 92 92 93 92 88 84 78 77 83 86 87 86 83 86 91 92 86 70 45 13 2 356 351 343 337 333 328
224 226 230 234 231 234 245 345 3 26 31 47 52 53 63 65 76 83 81 75 80 89 92 96 96 95 91 87 82 76 74 77 80 84 82 79 77 71 54 39 358 344 343 343 339 334 330 329 327
227 232 237 239 244 251 261 286 305 331 46 43 42 43 52 53 69 88 85 77 77 84 91 98 98 94 90 85 77 68 66 64 64 68 74 69 60 56 26 348 333 332 335 337 338 332 331 325 321
229 232 238 242 248 253 262 268 263 257 270 319 355 348 8 33 58 83 83 81 79 87 97 98 96 92 84 77 70 61 62 63 62 61 65 68 55 32 3 342 332 332 330 329 328 328 325 324 323
231 235 239 242 247 253 262 266 255 257 266 281 292 298 313 343 75 88 92 82 82 95 102 96 89 87 79 69 60 52 52 54 57 55 53 42 21 2 347 332 327 327 326 325 323 322 321 319 321
232 236 239 245 249 253 259 263 259 257 259 270 277 278 271 274 310 69 354 86 122 119 119 106 93 82 66 52 44 38 40 44 46 42 30 16 1 350 342 333 324 323 320 319 320 318 318 318 316
232 236 241 248 251 255 257 260 258 260 260 263 268 271 258 263 270 264 277 270 240 220 218 198 170 124 34 20 16 14 16 11 6 348 341 338 336 336 336 330 322 317 315 315 318 317 318 317 314
232 236 242 247 250 253 256 259 257 259 261 262 263 264 259 265 270 269 271 271 252 236 239 236 212 247 295 320 333 343 347 336 323 322 315 317 317 319 321 321 317 314 312 311 312 313 311 312 312
231 235 240 244 248 252 255 257 260 262 261 260 261 260 261 261 267 272 264 265 263 243 239 239 244 254 270 282 299 311 312 312 310 306 304 301 302 305 308 314 317 316 315 313 313 313 309 308 309
230 234 237 241 246 252 255 257 261 263 259 257 260 262 260 260 261 262 265 264 261 253 245 240 247 253 263 270 282 293 297 299 299 298 296 296 296 299 303 304 311 315 313 313 313 311 310 309 309
231 234 237 240 246 251 255 257 258 259 255 255 259 263 259 258 258 259 262 259 258 255 251 249 250 259 265 273 278 284 289 292 295 294 292 293 295 298 300 298 302 308 312 313 314 314 313 313 313